Location: Gälforsberget
(66.6500°N, 22.4167°E)
Time: 21:13:38
(UTC+00:00)

Cosmos 1892 Rocket - Pass Details

Date: 11 April 2026
Orbit: 599 x 626 km, 82.5° (Epoch: 11 May)

Event Time Altitude Azimuth Distance (km) Brightness Sun altitude
Rises 22:26:34 0° 341° (NNW) 2,930 8.5 -14.8°
Reaches altitude 10° 22:28:49 10° 340° (NNW) 2,017 7.4 -14.8°
Maximum altitude 22:33:17 79° 255° (WSW) 645 3.6 -14.8°
Enters shadow 22:35:52 25° 171° (S) 1,272 4.6 -14.8°
